Wind_Speed
7 7 7 7 7 7 8 8 8 9 9 8 8 7 6 6 5 5 4 4 4 4 4 4 4 4 4 4 4 4 5 5 5 5 5 5 6 6 6 6 6 6 6
5 5 6 6 6 7 7 6 7 8 8 8 8 7 7 6 6 6 5 5 5 5 5 5 5 5 6 5 5 5 6 6 6 6 6 6 7 7 7 7 7 8 8
3 4 4 5 6 6 6 6 6 6 7 7 7 7 7 6 6 6 6 6 6 6 7 7 7 6 6 7 7 7 7 7 7 7 7 8 8 9 9 9 9 9 10
2 3 3 4 5 5 5 6 6 6 6 7 8 8 7 7 7 7 7 7 7 7 7 7 7 7 8 8 9 9 8 9 9 9 9 9 10 10 10 10 11 11 11
2 3 3 3 3 4 5 6 6 6 6 7 8 8 8 8 8 8 8 8 8 8 8 8 8 9 9 9 9 9 9 9 10 10 11 11 11 11 12 12 12 12 12
1 0 1 2 3 4 4 6 6 7 7 8 9 9 9 9 10 9 9 10 10 9 9 9 10 10 10 10 10 10 10 10 11 11 12 12 12 13 13 13 13 13 13
3 2 2 2 3 4 5 6 7 8 8 8 9 10 10 10 10 9 9 10 10 11 11 11 11 11 11 11 11 11 12 12 12 12 13 13 14 14 14 14 14 14 14
4 3 3 3 4 5 6 7 7 8 9 9 9 11 11 11 11 11 10 10 10 11 11 12 12 12 12 12 12 12 13 13 13 13 13 14 15 15 15 15 15 15 15
5 4 4 4 5 5 6 7 8 8 9 9 9 10 11 12 12 12 12 11 11 11 12 12 12 12 13 13 14 14 14 14 14 14 14 15 15 15 15 15 16 16 17
5 5 5 5 5 5 6 6 8 8 9 9 10 10 11 12 12 12 12 12 12 12 12 13 13 13 14 14 14 14 15 15 14 15 15 16 16 16 16 17 17 17 18
6 6 6 6 6 6 7 7 7 7 7 8 8 9 9 10 11 11 11 12 12 13 13 13 14 14 14 14 15 15 15 15 16 16 15 16 16 16 17 18 18 19 19
7 7 7 8 8 8 8 8 8 8 8 8 9 9 10 10 11 11 11 12 12 12 13 13 14 14 15 16 16 16 16 16 16 16 16 16 17 18 18 19 19 20 20
9 9 9 9 9 9 9 9 9 9 9 9 9 9 10 11 11 12 12 12 12 13 13 13 13 14 14 15 16 16 16 16 16 17 17 18 19 19 20 20 20 20 21
10 11 11 11 11 11 11 10 10 10 10 10 11 11 11 11 12 12 12 12 13 13 13 13 14 14 14 15 16 16 17 18 18 19 19 20 20 20 21 21 21 22 22
11 11 12 12 12 12 12 12 12 12 12 12 12 13 13 13 13 13 13 13 13 14 15 15 15 16 16 16 16 17 18 19 19 20 21 22 22 22 22 22 22 23 24
13 13 13 13 13 13 14 15 15 15 15 14 15 15 15 15 15 15 15 15 15 16 16 16 17 17 18 18 18 18 19 19 20 21 22 23 23 24 24 24 24 25 26
15 14 14 15 14 15 16 17 17 17 17 17 17 17 17 17 17 17 17 17 17 17 17 17 18 18 19 20 20 20 21 21 22 22 23 23 24 24 25 25 25 25 26
17 16 16 16 17 17 18 18 18 18 18 18 18 19 19 19 20 19 19 20 20 19 19 18 19 19 20 21 21 22 22 22 23 24 24 24 25 25 26 26 26 26 27
19 19 19 19 19 19 19 19 19 20 20 20 20 20 21 21 22 22 22 22 22 22 21 21 21 22 22 22 23 23 24 24 25 25 25 26 26 27 27 27 27 27 27
22 21 22 22 21 21 21 20 21 22 22 22 22 22 22 22 22 23 23 23 23 24 24 24 24 24 24 25 25 26 26 26 26 27 27 27 27 28 28 28 28 28 28
24 24 24 23 23 23 23 22 23 24 24 24 24 23 23 23 24 24 24 24 25 25 25 25 26 26 26 26 27 27 27 27 27 28 28 28 28 28 29 29 28 28 28
26 25 25 24 24 24 24 24 24 25 25 26 26 25 26 26 26 26 26 26 26 26 26 27 27 28 28 28 28 28 28 28 28 29 29 29 28 28 28 28 28 28 28
26 26 25 25 25 24 25 25 25 26 26 26 26 26 27 27 27 27 27 27 27 28 28 29 29 29 29 30 30 30 30 30 29 29 30 29 29 29 28 28 27 27 28
27 27 26 27 26 26 26 27 27 27 26 26 27 27 28 28 28 28 29 29 29 29 29 30 30 30 31 31 31 31 31 31 31 30 30 30 31 30 30 30 29 29 29
28 28 28 28 27 27 27 28 28 29 28 28 28 28 29 29 30 30 31 31 31 31 31 31 30 30 30 31 31 32 32 32 31 30 30 30 30 31 30 30 30 30 30
30 30 29 29 29 29 29 30 30 31 30 29 29 29 30 31 32 32 33 33 33 32 33 32 32 31 31 32 32 32 32 32 32 31 31 32 32 32 31 31 31 32 32
Wind_Direction
144 148 155 163 171 181 187 186 184 187 191 192 197 201 200 202 205 203 207 212 221 229 236 237 239 239 241 242 243 247 252 258 265 266 268 271 272 276 273 273 275 275 273
138 154 163 170 178 189 194 193 192 196 199 200 205 210 208 211 216 217 223 234 242 247 250 249 248 248 250 253 254 254 255 259 263 267 270 272 272 275 277 277 277 277 274
138 154 170 187 192 197 197 197 197 202 207 214 217 219 216 216 220 225 232 242 251 254 256 253 252 250 254 258 259 261 263 261 266 270 271 270 272 276 278 280 279 281 276
147 169 188 196 195 196 199 207 204 208 215 221 225 229 227 228 234 240 242 246 250 253 255 251 249 255 257 259 262 267 269 268 273 272 272 273 272 275 277 281 280 280 281
151 189 200 196 205 214 217 219 214 218 227 232 234 234 234 238 243 250 250 250 253 256 257 255 256 262 263 263 264 268 272 275 277 277 277 276 275 276 276 279 279 277 279
35 313 232 229 241 237 232 230 228 229 234 237 240 240 241 244 247 249 252 254 255 258 260 259 260 263 267 263 263 268 273 275 277 279 279 277 277 278 278 278 279 277 279
348 325 276 278 272 261 250 247 244 240 242 244 243 242 243 246 246 249 252 255 256 258 261 261 263 264 267 265 265 268 271 272 275 280 280 279 280 282 282 282 279 278 281
344 330 299 287 281 274 266 258 257 254 249 250 250 247 246 245 248 248 254 257 258 260 262 261 262 264 267 267 267 269 271 273 273 277 279 280 283 284 284 284 284 281 282
340 334 319 302 287 278 274 264 261 263 260 257 257 254 250 249 253 253 257 261 263 264 267 266 263 263 265 266 266 268 271 274 276 278 278 279 282 285 285 285 285 285 283
336 333 326 317 302 289 285 280 272 267 264 263 260 258 256 254 254 254 257 261 263 265 267 267 265 266 267 268 270 272 272 275 278 280 281 279 281 282 282 281 283 284 285
327 321 316 311 307 296 289 285 282 277 274 271 266 265 264 258 261 262 264 264 265 265 266 268 268 267 265 268 270 274 276 275 277 280 282 281 282 283 283 282 282 283 283
322 316 309 304 305 301 293 289 284 281 276 274 271 269 267 266 266 265 267 269 269 268 269 269 269 269 269 269 272 275 277 277 279 281 283 284 284 285 285 284 284 286 286
316 312 306 301 300 300 298 295 289 284 279 274 272 274 273 271 270 269 271 275 274 273 273 272 271 273 274 273 274 276 278 280 282 285 285 285 286 286 287 286 286 287 287
309 308 302 297 294 293 293 290 289 285 280 276 275 275 276 275 273 272 274 278 280 279 277 276 276 277 278 278 277 278 280 281 283 284 285 285 286 287 287 287 287 287 288
302 303 300 295 293 291 289 289 290 285 284 280 278 276 275 276 276 276 274 275 278 279 278 278 278 279 281 281 282 281 282 282 283 284 285 286 286 286 286 287 287 287 288
297 295 296 295 294 290 285 286 287 285 283 281 280 278 276 276 277 279 278 278 278 279 279 279 280 282 283 284 284 284 285 284 284 284 286 287 286 286 286 287 287 286 286
295 293 292 292 291 288 287 287 286 284 281 279 281 279 277 277 276 277 279 281 281 280 280 279 280 282 284 286 286 287 287 286 287 288 288 286 286 286 288 287 287 287 286
291 291 290 289 289 287 286 286 286 284 281 280 281 280 278 277 277 277 278 279 280 279 279 279 280 282 284 285 285 286 287 287 288 289 290 288 288 288 289 288 287 287 287
289 288 288 288 287 286 286 285 283 282 280 278 279 280 278 277 277 277 278 279 278 277 276 277 279 281 283 283 285 285 286 288 290 290 290 289 289 289 289 288 288 287 287
288 288 287 287 285 283 283 282 280 280 279 278 276 276 276 276 276 276 277 279 278 278 277 277 279 279 281 283 284 286 287 289 290 291 290 290 290 290 289 289 288 288 288
287 286 286 286 283 282 281 280 279 279 278 277 276 275 274 274 276 277 278 280 280 278 278 279 280 280 281 283 284 285 286 288 289 290 291 290 290 290 289 288 287 288 289
285 286 285 283 282 281 279 277 277 278 279 277 275 273 273 273 274 276 277 278 279 279 279 279 280 280 281 283 283 284 284 286 288 289 290 290 289 290 290 289 288 289 291
282 282 283 282 281 280 279 278 275 277 278 278 276 273 271 272 274 275 276 276 277 278 279 280 281 280 279 281 283 284 285 285 287 287 287 288 288 289 290 290 289 289 290
281 281 280 281 281 282 282 281 279 276 275 276 276 274 271 270 273 275 276 276 278 279 281 283 281 281 280 280 282 283 284 284 285 285 285 287 287 287 288 289 288 288 288
280 281 280 280 280 281 280 280 280 277 275 275 275 274 273 272 272 274 276 277 277 279 281 283 283 280 281 281 282 283 285 287 287 286 286 286 287 288 288 288 288 288 288
282 283 282 282 281 280 279 279 278 277 275 274 274 274 274 274 273 275 277 277 277 278 279 280 281 282 281 281 282 283 284 286 286 286 286 286 287 287 288 287 287 288 289
Height
5886 5887 5887 5888 5889 5889 5890 5891 5892 5893 5894 5895 5896 5897 5898 5898 5899 5899 5900 5900 5901 5901 5901 5901 5901 5901 5901 5901 5901 5901 5901 5901 5901 5900 5900 5900 5900 5900 5900 5899 5899 5899 5898
5887 5887 5888 5888 5889 5890 5890 5890 5891 5892 5894 5895 5896 5896 5897 5898 5898 5898 5899 5899 5900 5900 5900 5900 5900 5900 5900 5900 5900 5900 5900 5900 5900 5899 5899 5899 5899 5899 5898 5898 5898 5897 5897
5887 5888 5888 5888 5889 5889 5890 5890 5891 5892 5893 5894 5895 5895 5896 5897 5897 5898 5898 5898 5898 5899 5899 5899 5899 5899 5899 5899 5899 5899 5898 5898 5898 5898 5898 5897 5897 5897 5897 5896 5896 5895 5895
5888 5888 5888 5888 5889 5889 5890 5890 5891 5891 5892 5893 5894 5894 5895 5895 5896 5896 5896 5897 5897 5897 5897 5897 5897 5898 5898 5898 5897 5897 5896 5896 5896 5896 5895 5895 5895 5895 5894 5894 5894 5893 5893
5889 5888 5888 5889 5889 5889 5890 5890 5891 5891 5892 5892 5892 5893 5893 5894 5894 5894 5895 5895 5895 5895 5895 5895 5895 5896 5896 5896 5895 5895 5895 5894 5894 5894 5893 5893 5892 5892 5892 5891 5891 5890 5890
5889 5889 5889 5889 5889 5889 5890 5890 5890 5890 5891 5891 5891 5891 5892 5892 5892 5892 5893 5893 5893 5893 5893 5893 5893 5893 5893 5893 5893 5893 5892 5892 5892 5891 5891 5890 5890 5889 5889 5888 5888 5887 5887
5889 5889 5889 5889 5889 5889 5889 5889 5889 5889 5889 5889 5890 5890 5890 5890 5890 5890 5891 5891 5891 5891 5891 5891 5891 5891 5891 5890 5890 5890 5890 5889 5889 5889 5888 5887 5887 5886 5886 5885 5885 5884 5884
5889 5889 5889 5888 5888 5888 5888 5888 5888 5888 5887 5888 5888 5888 5888 5889 5888 5888 5888 5888 5889 5888 5888 5888 5888 5888 5888 5888 5887 5887 5887 5886 5886 5886 5885 5884 5884 5883 5882 5881 5881 5880 5880
5889 5888 5888 5887 5887 5887 5887 5887 5886 5886 5886 5886 5886 5886 5886 5886 5886 5886 5886 5886 5886 5886 5886 5885 5885 5885 5885 5884 5884 5884 5884 5883 5883 5882 5881 5881 5880 5879 5879 5878 5877 5877 5876
5889 5888 5887 5886 5886 5886 5885 5885 5885 5884 5884 5884 5883 5883 5884 5884 5884 5883 5883 5883 5883 5883 5883 5882 5882 5882 5881 5881 5881 5881 5880 5880 5879 5879 5878 5877 5876 5875 5875 5874 5874 5873 5872
5888 5887 5886 5885 5885 5884 5884 5884 5883 5882 5882 5882 5881 5881 5881 5881 5881 5881 5881 5880 5880 5880 5879 5879 5879 5878 5878 5878 5878 5877 5877 5876 5876 5875 5874 5873 5872 5871 5871 5870 5869 5868 5867
5887 5886 5885 5884 5883 5883 5882 5882 5881 5880 5880 5880 5879 5879 5879 5879 5878 5878 5877 5877 5877 5877 5876 5876 5875 5875 5874 5874 5874 5873 5873 5872 5871 5871 5870 5869 5868 5867 5866 5865 5864 5863 5862
5885 5884 5883 5882 5882 5881 5880 5880 5879 5878 5878 5877 5877 5877 5876 5876 5876 5875 5875 5874 5873 5873 5873 5872 5872 5871 5870 5870 5870 5869 5869 5868 5867 5866 5865 5865 5864 5862 5861 5860 5859 5858 5857
5883 5882 5881 5880 5879 5879 5878 5877 5877 5875 5875 5874 5874 5874 5873 5873 5872 5872 5872 5871 5871 5870 5869 5869 5868 5868 5867 5866 5865 5865 5864 5863 5863 5862 5861 5860 5859 5858 5856 5855 5854 5853 5852
5880 5879 5878 5877 5876 5876 5875 5874 5873 5873 5872 5871 5871 5871 5870 5870 5869 5868 5868 5868 5868 5867 5866 5865 5864 5864 5863 5862 5861 5860 5860 5859 5858 5857 5856 5855 5853 5852 5851 5850 5848 5847 5846
5878 5876 5875 5874 5873 5872 5871 5871 5870 5869 5869 5868 5867 5867 5867 5866 5865 5865 5864 5864 5863 5863 5862 5861 5860 5859 5858 5858 5857 5856 5855 5854 5852 5851 5850 5849 5847 5846 5845 5844 5842 5841 5839
5875 5873 5872 5871 5869 5868 5867 5867 5866 5865 5865 5864 5863 5863 5862 5862 5861 5860 5860 5859 5859 5858 5858 5857 5856 5855 5854 5853 5852 5851 5849 5848 5847 5845 5844 5843 5841 5840 5838 5837 5835 5834 5832
5871 5869 5868 5867 5865 5864 5863 5862 5861 5860 5860 5859 5858 5858 5857 5857 5856 5856 5855 5854 5854 5853 5852 5851 5850 5849 5848 5847 5846 5845 5843 5842 5841 5839 5838 5836 5835 5833 5831 5830 5828 5827 5825
5866 5865 5863 5862 5861 5859 5858 5857 5856 5855 5854 5854 5853 5852 5852 5851 5851 5850 5849 5848 5848 5847 5847 5846 5845 5844 5842 5841 5840 5839 5837 5836 5834 5832 5831 5829 5828 5826 5824 5823 5821 5819 5818
5861 5859 5858 5856 5855 5853 5852 5851 5850 5850 5849 5848 5847 5846 5846 5845 5845 5844 5843 5843 5842 5841 5840 5840 5839 5837 5836 5834 5833 5832 5830 5829 5827 5825 5824 5822 5820 5818 5817 5815 5814 5812 5810
5854 5853 5851 5850 5848 5847 5846 5845 5844 5843 5842 5841 5841 5840 5840 5839 5839 5838 5837 5836 5835 5835 5834 5833 5832 5831 5829 5828 5826 5825 5823 5821 5820 5818 5816 5815 5813 5811 5809 5807 5806 5804 5803
5847 5846 5844 5843 5841 5840 5839 5838 5836 5836 5835 5834 5834 5833 5833 5833 5832 5831 5831 5830 5829 5828 5826 5825 5825 5823 5822 5820 5819 5817 5815 5814 5813 5811 5809 5807 5805 5803 5801 5800 5798 5796 5794
5840 5839 5837 5836 5834 5833 5832 5831 5830 5829 5828 5827 5826 5825 5825 5825 5824 5824 5823 5822 5821 5820 5819 5818 5816 5815 5814 5812 5810 5809 5807 5806 5804 5803 5801 5799 5797 5795 5794 5791 5790 5788 5786
5833 5831 5830 5829 5827 5826 5825 5824 5822 5821 5820 5819 5819 5818 5817 5817 5817 5816 5815 5814 5813 5812 5811 5809 5808 5807 5805 5804 5802 5800 5799 5797 5796 5794 5792 5791 5789 5787 5785 5783 5781 5780 5778
5826 5824 5822 5821 5820 5818 5817 5816 5815 5813 5812 5812 5811 5810 5809 5809 5808 5807 5806 5805 5804 5803 5802 5800 5799 5798 5796 5795 5793 5792 5790 5788 5787 5785 5783 5782 5780 5778 5777 5775 5773 5771 5769
5817 5816 5815 5813 5811 5810 5809 5807 5806 5804 5803 5803 5802 5801 5800 5800 5799 5798 5797 5796 5795 5794 5793 5791 5790 5789 5787 5786 5784 5783 5781 5779 5778 5776 5775 5773 5771 5769 5768 5766 5764 5762 5760